JH4XSY-13 Weather Reports


time (UTC)temp
C
wind
direction
speed
KPH
gust
KPH
rain 1hr
cm
rain 24hr
cm
rain mn
cm
humidity
%
barometer
mb
20260505183806 13 0.0 0.0 0.00 0.00 0.00 72
20260505180804 13 0.0 0.0 0.00 0.00 0.00 72
20260505173805 13 0.0 0.0 0.00 0.00 0.00 70
20260505170804 13 0.0 0.0 0.00 0.00 0.00 67
20260505163806 13 0.0 0.0 0.00 0.00 0.00 67
20260505160806 14 0.0 0.0 0.00 0.00 0.00 66
20260505150805 15 0.0 0.0 0.00 0.00 0.00 58
20260505123805 15 0.0 0.0 0.00 0.00 0.00 46
20260505120806 15 0.0 0.0 0.00 0.00 0.00 45
20260505113805 16 0.0 0.0 0.00 0.00 0.00 44
20260505110806 16 0.0 0.0 0.00 0.00 0.00 43
20260505100806 17 0.0 0.0 0.00 0.00 0.00 41
20260505093806 18 0.0 0.0 0.00 0.00 0.00 41
20260505090806 18 0.0 0.0 0.00 0.00 0.00 40
20260505083803 20 0.0 0.0 0.00 0.00 0.00 39
20260505080803 21 0.0 0.0 0.00 0.00 0.00 38
20260505073806 21 0.0 0.0 0.00 0.00 0.00 35
20260505070806 25 0.0 0.0 0.00 0.00 0.00 27
20260505063804 28 0.0 0.0 0.00 0.00 0.00 26
20260505060804 28 0.0 0.0 0.00 0.00 0.00 27
20260505053806 27 0.0 0.0 0.00 0.00 0.00 26
20260505050806 26 0.0 0.0 0.00 0.00 0.00 26
20260505040804 23 0.0 0.0 0.00 0.00 0.00 28
20260505033804 22 0.0 0.0 0.00 0.00 0.00 28
20260505030805 21 0.0 0.0 0.00 0.00 0.00 29
20260505023806 21 0.0 0.0 0.00 0.00 0.00 31
20260505020805 20 0.0 0.0 0.00 0.00 0.00 34
20260505013806 18 0.0 0.0 0.00 0.00 0.00 36
20260505010804 18 0.0 0.0 0.00 0.00 0.00 39
20260505003806 17 0.0 0.0 0.00 0.00 0.00 39
20260505000805 16 0.0 0.0 0.00 0.00 0.00 39
20260504233805 16 0.0 0.0 0.00 0.00 0.00 40
20260504230805 15 0.0 0.0 0.00 0.00 0.00 40
20260504223804 15 0.0 0.0 0.00 0.00 0.00 41
20260504220804 14 0.0 0.0 0.00 0.00 0.00 42
20260504213806 13 0.0 0.0 0.00 0.00 0.00 43
20260504210806 12 0.0 0.0 0.00 0.00 0.00 43
20260504203806 12 0.0 0.0 0.00 0.00 0.00 43
20260504200806 11 0.0 0.0 0.00 0.00 0.00 45
20260504193804 12 0.0 0.0 0.00 0.00 0.00 46
20260504190806 12 0.0 0.0 0.00 0.00 0.00 44